602  
ASUS41 KRLX 221410  
RWRRLX  
WEST VIRGINIA REGIONAL WEATHER ROUNDUP  
NATIONAL WEATHER SERVICE CHARLESTON WV  
1000 AM EDT TUE AUG 22 2017  
 
NOTE: "FAIR" INDICATES FEW OR NO CLOUDS BELOW 12,000 FEET WITH NO  
SIGNIFICANT WEATHER AND/OR S TO VISIBILITY
.  
 
WVZ003-221500-  
NORTHERN PANHANDLE OF WEST VIRGINIA  
 
CITY SKY/WX TMP DP RH WIND PRES REMARKS
 
WHEELING MOSUNNY 78 68 71 SW12G18 29.99F  

 
 
WVZ009-221500-  
NORTHWEST WEST VIRGINIA  
 
CITY SKY/WX TMP DP RH WIND PRES REMARKS
 
PARKERSBURG MOSUNNY 79 70 74 SW9 30.04S  

 
 
WVZ006-221500-  
WESTERN WEST VIRGINIA  
 
CITY SKY/WX TMP DP RH WIND PRES REMARKS
 
HUNTINGTON SUNNY 80 69 69 S10 30.03F  

 
 
WVZ015-221500-  
WEST CENTRAL WEST VIRGINIA  
 
CITY SKY/WX TMP DP RH WIND PRES REMARKS
 
CHARLESTON MOSUNNY 81 69 67 SW7 30.05F  

 
 
WVZ022-031-221500-  
NORTH CENTRAL WEST VIRGINIA  
 
CITY SKY/WX TMP DP RH WIND PRES REMARKS
 
CLARKSBURG SUNNY 81 67 62 S10 30.04F  
MORGANTOWN MOSUNNY 79 67 66 S7 30.04F  

 
 
WVZ025-035-042-045-221500-  
SOUTHERN WEST VIRGINIA  
 
CITY SKY/WX TMP DP RH WIND PRES REMARKS
 
BECKLEY SUNNY 77 66 68 SW8 30.17F  
LOGAN N/A 77 70 78 CALM 30.11F  
BLUEFIELD MOSUNNY 74 66 76 W9 30.21S  
LEWISBURG SUNNY 74 66 75 SW5 30.17S  

 
 
WVZ047-221500-  
NORTHERN MOUNTAINS OF WEST VIRGINIA  
 
CITY SKY/WX TMP DP RH WIND PRES REMARKS
 
ELKINS SUNNY 76 66 71 VRB3 30.12F  

 
 
WVZ052-221500-  
EASTERN PANHANDLE OF WEST VIRGINIA  
 
CITY SKY/WX TMP DP RH WIND PRES REMARKS
 
MARTINSBURG SUNNY 80 71 74 VRB3 30.01F  
PETERSBURG SUNNY 79 72 78 CALM 30.05S  

 
 
 
CLICK HERE TO GO TO PREVIOUS BULLETINS.

The Nexlab WV Page
The Nexlab OH Page
The Nexlab KY Page
The Nexlab VA Page Main Text Page